This is the latest recevied weather packets stored in our database for station/object TG5ALY-16. If no packets are shown the sender has not sent any weather packets the latest 10 day(s).
| Time | Temp. | Humidity | Pressure | Rain* | Wind** | Luminosity | Snow |
|---|---|---|---|---|---|---|---|
| 1778035117 | 15.56° C | 85% | 1018 hPa | 0 mm | - | - | - |
| 1778034516 | 15.56° C | 85% | 1017 hPa | 0 mm | - | - | - |
| 1778033916 | 15.56° C | 83% | 1017 hPa | 0 mm | - | - | - |
| 1778033315 | 15.56° C | 82% | 1017 hPa | 0 mm | - | - | - |
| 1778032714 | 15.56° C | 80% | 1017 hPa | 0 mm | - | - | - |
| 1778032114 | 15.56° C | 80% | 1017 hPa | 0 mm | - | - | - |
| 1778031513 | 16.11° C | 79% | 1017 hPa | 0 mm | - | - | - |
| 1778030912 | 16.11° C | 79% | 1016 hPa | 0 mm | - | - | - |
| 1778030312 | 16.67° C | 77% | 1016 hPa | 0 mm | - | - | - |
| 1778029711 | 16.67° C | 77% | 1016 hPa | 0 mm | - | - | - |
| 1778029110 | 17.22° C | 85% | 1016 hPa | 0 mm | - | - | - |
| 1778028510 | 17.22° C | 85% | 1016 hPa | 0 mm | - | - | - |
| 1778027909 | 17.78° C | 84% | 1016 hPa | 0 mm | - | - | - |
| 1778027308 | 17.78° C | 84% | 1015 hPa | 0 mm | - | - | - |
| 1778026708 | 18.33° C | 79% | 1015 hPa | 0 mm | - | - | - |
| 1778026107 | 18.33° C | 79% | 1015 hPa | 0 mm | - | - | - |
| 1778025507 | 20° C | 59% | 1015 hPa | 0 mm | - | - | - |
| 1778024906 | 20° C | 59% | 1015 hPa | 0 mm | - | - | - |
| 1778024305 | 20.56° C | 70% | 1015 hPa | 0 mm | - | - | - |
| 1778023705 | 20.56° C | 70% | 1014 hPa | 0 mm | - | - | - |
| 1778023104 | 20.56° C | 73% | 1014 hPa | 0 mm | - | - | - |
| 1778022503 | 20.56° C | 73% | 1014 hPa | 0 mm | - | - | - |
| 1778021902 | 20.56° C | 71% | 1014 hPa | 0 mm | - | - | - |
| 1778021302 | 20.56° C | 71% | 1014 hPa | 0 mm | - | - | - |
| 1778020701 | 20.56° C | 71% | 1014 hPa | 0 mm | - | - | - |
* Rain latest hour (hover to see other rain measurements)
** Current wind speed in m/s (hover to see current wind gust speed)